ACI699 NSTU-NWWW

Flight info

Callsign ACI699
Flight time 3h 30m
Altitude 34000
Route TUT SETTS BIGEK AVKOL BODER LAPUM LUPLO LEBUT NN BUTVI NIPOG NIPO2A
Aircraft A20N/M-SDE2E3FGHIJ1RWXY/LB1

Departure

Time 2026-04-22 09:41
Airport Pago Pago International Airport (NSTU)

Arrival

Time 2026-04-22 13:11
Airport La Tontouta International Airport (NWWW)
Time Latitude Longitude Altitude Speed Heading
2026-04-22 09:24 -14.32803 -170.71279 100 ft 0 kts 134°
2026-04-22 09:34 -14.32805 -170.71277 0 ft 3 kts 134°
2026-04-22 09:34 -14.32854 -170.71238 99 ft 15 kts 160°
2026-04-22 09:34 -14.32949 -170.71237 99 ft 13 kts 182°
2026-04-22 09:35 -14.33183 -170.71265 95 ft 21 kts 199°
2026-04-22 09:35 -14.33271 -170.71361 93 ft 16 kts 240°
2026-04-22 09:35 -14.33316 -170.71442 92 ft 11 kts 240°
2026-04-22 09:35 -14.33347 -170.71498 92 ft 8 kts 240°
2026-04-22 09:36 -14.33373 -170.71545 92 ft 8 kts 240°
2026-04-22 09:36 -14.33410 -170.71611 93 ft 13 kts 240°
2026-04-22 09:36 -14.33476 -170.71731 93 ft 25 kts 240°
2026-04-22 09:36 -14.33560 -170.71898 94 ft 24 kts 252°
2026-04-22 09:37 -14.33600 -170.72042 94 ft 18 kts 250°
2026-04-22 09:37 -14.33653 -170.72142 95 ft 13 kts 239°
2026-04-22 09:37 -14.33697 -170.72221 95 ft 13 kts 240°
2026-04-22 09:37 -14.33747 -170.72307 93 ft 13 kts 227°
2026-04-22 09:38 -14.33784 -170.72319 95 ft 0 kts 161°
2026-04-22 09:38 -14.33785 -170.72319 95 ft 1 kts 160°
2026-04-22 09:39 -14.33838 -170.72291 93 ft 17 kts 150°
2026-04-22 09:39 -14.33855 -170.72186 94 ft 10 kts 57°
2026-04-22 09:39 -14.33854 -170.72183 94 ft 0 kts 58°
2026-04-22 09:41 -14.33812 -170.72111 94 ft 44 kts 60°
2026-04-22 09:41 -14.33500 -170.71545 91 ft 136 kts 60°
2026-04-22 09:41 -14.32895 -170.70484 380 ft 199 kts 59°
2026-04-22 09:41 -14.31788 -170.69442 1335 ft 231 kts 21°
2026-04-22 09:42 -14.30175 -170.69408 2779 ft 245 kts 340°
2026-04-22 09:42 -14.28805 -170.70493 4052 ft 260 kts 301°
2026-04-22 09:42 -14.28302 -170.72296 5265 ft 271 kts 265°
2026-04-22 09:42 -14.28906 -170.74103 6445 ft 276 kts 230°
2026-04-22 09:43 -14.30215 -170.75598 7602 ft 286 kts 222°
2026-04-22 09:43 -14.31638 -170.77053 8873 ft 291 kts 222°
2026-04-22 09:43 -14.33046 -170.78577 10121 ft 296 kts 227°
2026-04-22 09:43 -14.34368 -170.80281 11013 ft 316 kts 233°
2026-04-22 09:44 -14.35596 -170.82251 11733 ft 337 kts 238°
2026-04-22 09:44 -14.36733 -170.84447 12477 ft 357 kts 242°
2026-04-22 09:44 -14.37804 -170.86827 13233 ft 374 kts 245°
2026-04-22 09:44 -14.38827 -170.89351 13972 ft 389 kts 247°
2026-04-22 09:45 -14.39821 -170.92003 14711 ft 403 kts 249°
2026-04-22 09:45 -14.40796 -170.94764 15437 ft 416 kts 250°
2026-04-22 09:45 -14.41756 -170.97607 16313 ft 423 kts 251°
2026-04-22 09:45 -14.42701 -171.00499 17198 ft 428 kts 251°
2026-04-22 09:46 -14.43653 -171.03435 18013 ft 435 kts 252°
2026-04-22 09:46 -14.44611 -171.06413 18845 ft 440 kts 252°
2026-04-22 09:46 -14.45573 -171.09430 19625 ft 446 kts 252°
2026-04-22 09:46 -14.46543 -171.12490 20345 ft 451 kts 252°
2026-04-22 09:47 -14.47520 -171.15588 21066 ft 456 kts 252°
2026-04-22 09:47 -14.48505 -171.18720 21747 ft 462 kts 252°
2026-04-22 09:47 -14.49501 -171.21892 22412 ft 467 kts 252°
2026-04-22 09:47 -14.50506 -171.25093 23060 ft 471 kts 252°
2026-04-22 09:48 -14.51520 -171.28334 23650 ft 477 kts 252°
2026-04-22 09:48 -14.52542 -171.31609 24260 ft 481 kts 252°
2026-04-22 09:48 -14.53570 -171.34909 24840 ft 485 kts 252°
2026-04-22 09:48 -14.54606 -171.38241 25405 ft 490 kts 252°
2026-04-22 09:49 -14.55651 -171.41602 25948 ft 494 kts 252°
2026-04-22 09:49 -14.56701 -171.44987 26476 ft 497 kts 252°
2026-04-22 09:49 -14.57754 -171.48387 27183 ft 496 kts 252°
2026-04-22 09:49 -14.58788 -171.51730 27921 ft 494 kts 252°
2026-04-22 09:50 -14.59830 -171.55104 28636 ft 493 kts 252°
2026-04-22 09:50 -14.60880 -171.58515 29314 ft 491 kts 252°
2026-04-22 09:50 -14.61911 -171.61875 29972 ft 490 kts 252°
2026-04-22 09:50 -14.62926 -171.65188 30600 ft 489 kts 252°
2026-04-22 09:51 -14.63969 -171.68527 31260 ft 487 kts 252°
2026-04-22 09:51 -14.65017 -171.71847 31878 ft 486 kts 251°
2026-04-22 09:51 -14.66066 -171.75158 32507 ft 484 kts 251°
2026-04-22 09:51 -14.67111 -171.78452 33114 ft 482 kts 251°
2026-04-22 09:52 -14.68145 -171.81719 33571 ft 472 kts 251°
2026-04-22 09:52 -14.69161 -171.84929 33816 ft 471 kts 251°
2026-04-22 09:52 -14.70182 -171.88157 33920 ft 476 kts 251°
2026-04-22 09:52 -14.71214 -171.91424 33968 ft 480 kts 251°
2026-04-22 09:53 -14.73278 -171.97970 33992 ft 477 kts 251°
2026-04-22 09:53 -14.75322 -172.04474 33997 ft 476 kts 251°
2026-04-22 09:54 -14.77365 -172.10988 34000 ft 477 kts 251°
2026-04-22 09:54 -14.79408 -172.17517 33996 ft 477 kts 251°
2026-04-22 09:55 -14.81442 -172.24031 34000 ft 476 kts 251°
2026-04-22 09:55 -14.83475 -172.30551 34000 ft 477 kts 251°
2026-04-22 09:56 -14.85509 -172.37081 34001 ft 477 kts 251°
2026-04-22 09:56 -14.87537 -172.43604 34001 ft 476 kts 251°
2026-04-22 09:57 -14.89563 -172.50123 34001 ft 477 kts 251°
2026-04-22 09:57 -14.91591 -172.56656 34001 ft 478 kts 252°
2026-04-22 09:58 -14.93626 -172.63217 34001 ft 479 kts 252°
2026-04-22 09:58 -14.95654 -172.69771 34001 ft 478 kts 252°
2026-04-22 09:59 -14.97678 -172.76319 34000 ft 478 kts 252°
2026-04-22 09:59 -14.99704 -172.82879 34002 ft 479 kts 252°
2026-04-22 10:00 -15.01715 -172.89397 34001 ft 478 kts 252°
2026-04-22 10:00 -15.03733 -172.95947 34002 ft 478 kts 252°
2026-04-22 10:01 -15.05751 -173.02505 34002 ft 479 kts 252°
2026-04-22 10:01 -15.07769 -173.09071 34002 ft 478 kts 252°
2026-04-22 10:02 -15.09780 -173.15625 34002 ft 478 kts 252°
2026-04-22 10:02 -15.11454 -173.21077 34002 ft 477 kts 252°
2026-04-22 10:03 -15.13459 -173.27597 34003 ft 474 kts 253°
2026-04-22 10:03 -15.15445 -173.34111 34001 ft 475 kts 253°
2026-04-22 10:04 -15.17446 -173.40636 34000 ft 476 kts 253°
2026-04-22 10:04 -15.19451 -173.47161 33999 ft 475 kts 253°
2026-04-22 10:05 -15.21448 -173.53671 34003 ft 475 kts 253°
2026-04-22 10:05 -15.23445 -173.60194 34003 ft 476 kts 253°
2026-04-22 10:06 -15.25441 -173.66731 34000 ft 475 kts 253°
2026-04-22 10:06 -15.27429 -173.73252 34002 ft 475 kts 253°
2026-04-22 10:07 -15.29416 -173.79779 34001 ft 475 kts 253°
2026-04-22 10:07 -15.31402 -173.86314 34002 ft 476 kts 253°
2026-04-22 10:08 -15.33386 -173.92850 34001 ft 475 kts 253°
2026-04-22 10:08 -15.35365 -173.99378 34003 ft 475 kts 253°
2026-04-22 10:09 -15.37344 -174.05916 33999 ft 476 kts 253°
2026-04-22 10:09 -15.39322 -174.12454 34001 ft 475 kts 253°
2026-04-22 10:10 -15.41294 -174.18984 34003 ft 475 kts 253°
2026-04-22 10:10 -15.43265 -174.25518 34003 ft 475 kts 253°
2026-04-22 10:11 -15.45237 -174.32064 34002 ft 476 kts 253°
2026-04-22 10:11 -15.47206 -174.38602 34000 ft 475 kts 253°
2026-04-22 10:12 -15.49157 -174.45092 34003 ft 475 kts 253°
2026-04-22 10:12 -15.51119 -174.51635 34002 ft 475 kts 253°
2026-04-22 10:13 -15.53065 -174.58157 34001 ft 473 kts 252°
2026-04-22 10:13 -15.55009 -174.64676 34003 ft 473 kts 252°
2026-04-22 10:14 -15.56951 -174.71169 34002 ft 470 kts 252°
2026-04-22 10:14 -15.58891 -174.77651 34003 ft 471 kts 252°
2026-04-22 10:15 -15.60836 -174.84153 34002 ft 472 kts 252°
2026-04-22 10:15 -15.62776 -174.90651 34002 ft 471 kts 252°
2026-04-22 10:16 -15.64711 -174.97139 34003 ft 471 kts 252°
2026-04-22 10:16 -15.66647 -175.03640 34001 ft 472 kts 252°
2026-04-22 10:17 -15.68582 -175.10146 34002 ft 471 kts 252°
2026-04-22 10:17 -15.70511 -175.16643 34003 ft 472 kts 252°
2026-04-22 10:18 -15.72455 -175.23184 34003 ft 476 kts 252°
2026-04-22 10:18 -15.74395 -175.29734 34002 ft 474 kts 252°
2026-04-22 10:19 -15.76328 -175.36272 34003 ft 473 kts 252°
2026-04-22 10:19 -15.78261 -175.42816 34000 ft 475 kts 252°
2026-04-22 10:20 -15.80194 -175.49369 34001 ft 474 kts 252°
2026-04-22 10:20 -15.82120 -175.55906 34001 ft 473 kts 252°
2026-04-22 10:21 -15.84031 -175.62402 34003 ft 474 kts 252°
2026-04-22 10:21 -15.85957 -175.68957 34002 ft 474 kts 252°
2026-04-22 10:22 -15.87877 -175.75504 33999 ft 473 kts 252°
2026-04-22 10:22 -15.89802 -175.82048 34003 ft 474 kts 252°
2026-04-22 10:23 -15.91753 -175.88592 34002 ft 474 kts 252°
2026-04-22 10:23 -15.93709 -175.95133 33999 ft 474 kts 252°
2026-04-22 10:24 -15.95662 -176.01665 34003 ft 473 kts 252°
2026-04-22 10:24 -15.97616 -176.08207 34003 ft 474 kts 252°
2026-04-22 10:25 -15.99567 -176.14753 34002 ft 474 kts 252°
2026-04-22 10:25 -16.01514 -176.21294 34000 ft 473 kts 252°
2026-04-22 10:26 -16.03457 -176.27832 34003 ft 474 kts 252°
2026-04-22 10:26 -16.05404 -176.34389 34002 ft 474 kts 252°
2026-04-22 10:27 -16.07346 -176.40940 34002 ft 473 kts 252°
2026-04-22 10:27 -16.09280 -176.47488 34003 ft 474 kts 252°
2026-04-22 10:28 -16.11205 -176.54031 34000 ft 470 kts 252°
2026-04-22 10:28 -16.13106 -176.60477 34001 ft 463 kts 252°
2026-04-22 10:29 -16.14990 -176.66845 34002 ft 459 kts 252°
2026-04-22 10:29 -16.16867 -176.73174 34002 ft 457 kts 252°
2026-04-22 10:30 -16.18738 -176.79481 34002 ft 457 kts 253°
2026-04-22 10:30 -16.20612 -176.85815 34003 ft 460 kts 254°
2026-04-22 10:31 -16.22483 -176.92169 34003 ft 465 kts 254°
2026-04-22 10:31 -16.24377 -176.98640 34003 ft 470 kts 254°
2026-04-22 10:32 -16.26278 -177.05149 33999 ft 469 kts 254°
2026-04-22 10:32 -16.28181 -177.11618 34033 ft 465 kts 255°
2026-04-22 10:33 -16.30048 -177.17982 34053 ft 453 kts 255°
2026-04-22 10:33 -16.31832 -177.24183 34055 ft 444 kts 254°
2026-04-22 10:34 -16.33613 -177.30348 34057 ft 446 kts 254°
2026-04-22 10:34 -16.35415 -177.36551 34056 ft 448 kts 254°
2026-04-22 10:35 -16.37215 -177.42745 34055 ft 446 kts 254°
2026-04-22 10:35 -16.39011 -177.48931 34057 ft 447 kts 254°
2026-04-22 10:36 -16.40809 -177.55132 34056 ft 448 kts 254°
2026-04-22 10:36 -16.42604 -177.61332 34055 ft 446 kts 254°
2026-04-22 10:37 -16.45291 -177.70619 34058 ft 447 kts 254°
2026-04-22 10:38 -16.47082 -177.76826 34055 ft 447 kts 254°
2026-04-22 10:38 -16.48870 -177.83026 34056 ft 446 kts 254°
2026-04-22 10:39 -16.50641 -177.89178 34058 ft 447 kts 254°
2026-04-22 10:39 -16.52426 -177.95383 34057 ft 447 kts 254°
2026-04-22 10:40 -16.54209 -178.01593 34055 ft 447 kts 254°
2026-04-22 10:40 -16.55987 -178.07792 34056 ft 446 kts 254°
2026-04-22 10:41 -16.57764 -178.13995 34056 ft 447 kts 254°
2026-04-22 10:41 -16.59541 -178.20210 34055 ft 447 kts 255°
2026-04-22 10:42 -16.61315 -178.26419 34056 ft 446 kts 254°
2026-04-22 10:42 -16.63095 -178.32621 34055 ft 447 kts 254°
2026-04-22 10:43 -16.64902 -178.38897 34058 ft 457 kts 255°
2026-04-22 10:43 -16.66726 -178.45256 34055 ft 456 kts 255°
2026-04-22 10:44 -16.68533 -178.51579 34058 ft 454 kts 255°
2026-04-22 10:44 -16.70323 -178.57859 34058 ft 456 kts 255°
2026-04-22 10:45 -16.72127 -178.64197 34056 ft 455 kts 255°
2026-04-22 10:45 -16.73925 -178.70520 34056 ft 454 kts 255°
2026-04-22 10:46 -16.75722 -178.76847 34058 ft 455 kts 255°
2026-04-22 10:46 -16.77519 -178.83185 34055 ft 456 kts 255°
2026-04-22 10:47 -16.79313 -178.89519 34056 ft 455 kts 255°
2026-04-22 10:47 -16.81103 -178.95844 34057 ft 455 kts 255°
2026-04-22 10:48 -16.82591 -179.01111 34057 ft 456 kts 255°
2026-04-22 10:48 -16.84381 -179.07452 34056 ft 455 kts 255°
2026-04-22 10:49 -16.86166 -179.13783 34056 ft 454 kts 255°
2026-04-22 10:49 -16.87949 -179.20117 34056 ft 455 kts 255°
2026-04-22 10:50 -16.89735 -179.26468 34056 ft 455 kts 255°
2026-04-22 10:50 -16.91516 -179.32810 34055 ft 455 kts 255°
2026-04-22 10:51 -16.93293 -179.39144 34057 ft 455 kts 255°
2026-04-22 10:51 -16.95059 -179.45453 34056 ft 456 kts 255°
2026-04-22 10:52 -16.96835 -179.51801 34055 ft 455 kts 255°
2026-04-22 10:52 -16.98606 -179.58140 34056 ft 454 kts 255°
2026-04-22 10:53 -17.00371 -179.64492 34056 ft 455 kts 255°
2026-04-22 10:53 -17.02138 -179.70839 34055 ft 455 kts 255°
2026-04-22 10:54 -17.03903 -179.77174 34057 ft 454 kts 255°
2026-04-22 10:54 -17.05670 -179.83525 34057 ft 455 kts 255°
2026-04-22 10:55 -17.07435 -179.89880 34056 ft 455 kts 255°
2026-04-22 10:55 -17.09194 -179.96224 34057 ft 454 kts 255°
2026-04-22 10:56 -17.10951 179.97432 34056 ft 455 kts 255°
2026-04-22 10:56 -17.12709 179.91075 34056 ft 455 kts 255°
2026-04-22 10:57 -17.14452 179.84764 34056 ft 454 kts 255°
2026-04-22 10:57 -17.16202 179.78419 34058 ft 454 kts 255°
2026-04-22 10:58 -17.17985 179.72109 34013 ft 448 kts 258°
2026-04-22 10:58 -17.19724 179.65859 34006 ft 449 kts 258°
2026-04-22 10:59 -17.21441 179.59561 34002 ft 451 kts 258°
2026-04-22 10:59 -17.23155 179.53264 34001 ft 449 kts 258°
2026-04-22 11:00 -17.24865 179.46983 34003 ft 449 kts 258°
2026-04-22 11:00 -17.26581 179.40681 34006 ft 451 kts 258°
2026-04-22 11:01 -17.28301 179.34362 34004 ft 451 kts 258°
2026-04-22 11:01 -17.30013 179.28075 34001 ft 448 kts 258°
2026-04-22 11:02 -17.31720 179.21790 34002 ft 450 kts 258°
2026-04-22 11:02 -17.33429 179.15473 34000 ft 450 kts 259°
2026-04-22 11:03 -17.34842 179.09168 34001 ft 447 kts 262°
2026-04-22 11:03 -17.36097 179.02754 34002 ft 447 kts 263°
2026-04-22 11:04 -17.37289 178.96407 34001 ft 447 kts 263°
2026-04-22 11:04 -17.38471 178.90021 34001 ft 446 kts 263°
2026-04-22 11:05 -17.39644 178.83640 34002 ft 446 kts 263°
2026-04-22 11:05 -17.40814 178.77248 34002 ft 447 kts 263°
2026-04-22 11:06 -17.41982 178.70852 34001 ft 447 kts 263°
2026-04-22 11:06 -17.43146 178.64464 34002 ft 446 kts 263°
2026-04-22 11:07 -17.44308 178.58075 34001 ft 447 kts 263°
2026-04-22 11:07 -17.45467 178.51676 34002 ft 447 kts 263°
2026-04-22 11:08 -17.46594 178.45284 34001 ft 446 kts 262°
2026-04-22 11:08 -17.47751 178.38923 34002 ft 444 kts 262°
2026-04-22 11:09 -17.48909 178.32554 34002 ft 446 kts 262°
2026-04-22 11:09 -17.50067 178.26161 34001 ft 447 kts 262°
2026-04-22 11:10 -17.51213 178.19820 34001 ft 445 kts 262°
2026-04-22 11:10 -17.52363 178.13435 34003 ft 447 kts 262°
2026-04-22 11:11 -17.53514 178.07029 34003 ft 447 kts 262°
2026-04-22 11:11 -17.54667 178.00594 34017 ft 451 kts 262°
2026-04-22 11:12 -17.55821 177.94131 34007 ft 449 kts 262°
2026-04-22 11:12 -17.56966 177.87724 34005 ft 447 kts 262°
2026-04-22 11:13 -17.58091 177.81339 34004 ft 441 kts 261°
2026-04-22 11:13 -17.59206 177.75054 34003 ft 438 kts 261°
2026-04-22 11:14 -17.60326 177.68757 34001 ft 440 kts 261°
2026-04-22 11:14 -17.61443 177.62458 34001 ft 440 kts 261°
2026-04-22 11:15 -17.62555 177.56171 34004 ft 443 kts 261°
2026-04-22 11:15 -17.63671 177.49841 34000 ft 439 kts 261°
2026-04-22 11:16 -17.64770 177.43552 34001 ft 439 kts 263°
2026-04-22 11:16 -17.65306 177.37191 34000 ft 438 kts 268°
2026-04-22 11:17 -17.65566 177.30812 33998 ft 437 kts 269°
2026-04-22 11:17 -17.65760 177.24445 34000 ft 437 kts 269°
2026-04-22 11:18 -17.65930 177.18076 34023 ft 438 kts 269°
2026-04-22 11:18 -17.66089 177.11691 34019 ft 438 kts 270°
2026-04-22 11:19 -17.66242 177.05320 34028 ft 437 kts 270°
2026-04-22 11:19 -17.66390 176.98953 34021 ft 437 kts 270°
2026-04-22 11:20 -17.66534 176.92573 34029 ft 438 kts 270°
2026-04-22 11:20 -17.66675 176.86195 34029 ft 437 kts 270°
2026-04-22 11:21 -17.66813 176.79828 34027 ft 437 kts 270°
2026-04-22 11:21 -17.66948 176.73456 34027 ft 438 kts 270°
2026-04-22 11:22 -17.67081 176.67074 34029 ft 437 kts 270°
2026-04-22 11:22 -17.67211 176.60744 34029 ft 437 kts 270°
2026-04-22 11:23 -17.67352 176.54367 34031 ft 439 kts 270°
2026-04-22 11:23 -17.67479 176.47965 34029 ft 439 kts 270°
2026-04-22 11:24 -17.67601 176.41578 34025 ft 437 kts 270°
2026-04-22 11:24 -17.67721 176.35195 34031 ft 438 kts 270°
2026-04-22 11:25 -17.67839 176.28799 34025 ft 439 kts 270°
2026-04-22 11:25 -17.67956 176.22410 34030 ft 438 kts 271°
2026-04-22 11:26 -17.68071 176.16028 34030 ft 438 kts 271°
2026-04-22 11:26 -17.68184 176.09633 34028 ft 439 kts 271°
2026-04-22 11:27 -17.68294 176.03238 34030 ft 438 kts 271°
2026-04-22 11:27 -17.68404 175.96851 34027 ft 438 kts 271°
2026-04-22 11:28 -17.68511 175.90463 34031 ft 439 kts 271°
2026-04-22 11:28 -17.68615 175.84069 34030 ft 439 kts 271°
2026-04-22 11:29 -17.68718 175.77682 34030 ft 438 kts 271°
2026-04-22 11:29 -17.68819 175.71299 34031 ft 438 kts 271°
2026-04-22 11:30 -17.68917 175.64904 34030 ft 439 kts 271°
2026-04-22 11:30 -17.69014 175.58508 34030 ft 438 kts 271°
2026-04-22 11:31 -17.69109 175.52126 34030 ft 438 kts 271°
2026-04-22 11:31 -17.69201 175.45735 34031 ft 439 kts 271°
2026-04-22 11:32 -17.69291 175.39380 34030 ft 438 kts 271°
2026-04-22 11:32 -17.69380 175.32949 34031 ft 438 kts 271°
2026-04-22 11:33 -17.69475 175.26680 34030 ft 429 kts 271°
2026-04-22 11:33 -17.69557 175.20362 34026 ft 432 kts 271°
2026-04-22 11:34 -17.69634 175.14090 34030 ft 433 kts 271°
2026-04-22 11:34 -17.69710 175.07788 34030 ft 431 kts 271°
2026-04-22 11:35 -17.69786 175.01499 34030 ft 432 kts 271°
2026-04-22 11:35 -17.69859 174.95192 34030 ft 433 kts 271°
2026-04-22 11:36 -17.69931 174.88887 34026 ft 432 kts 271°
2026-04-22 11:36 -17.70506 174.82619 34035 ft 436 kts 261°
2026-04-22 11:37 -17.71652 174.77460 34029 ft 438 kts 259°
2026-04-22 11:37 -17.73172 174.71283 34021 ft 437 kts 258°
2026-04-22 11:38 -17.74742 174.65157 34022 ft 432 kts 258°
2026-04-22 11:38 -17.77101 174.56013 34032 ft 435 kts 258°
2026-04-22 11:39 -17.78687 174.49891 34021 ft 434 kts 258°
2026-04-22 11:39 -17.80271 174.43790 34027 ft 433 kts 258°
2026-04-22 11:40 -17.81858 174.37683 34028 ft 434 kts 258°
2026-04-22 11:40 -17.83440 174.31600 34023 ft 434 kts 258°
2026-04-22 11:41 -17.85026 174.25497 34027 ft 433 kts 258°
2026-04-22 11:41 -17.86613 174.19391 34032 ft 434 kts 258°
2026-04-22 11:42 -17.88202 174.13274 34032 ft 434 kts 258°
2026-04-22 11:42 -17.89789 174.07161 34022 ft 434 kts 258°
2026-04-22 11:43 -17.91372 174.01053 34027 ft 434 kts 258°
2026-04-22 11:43 -17.92955 173.94935 34022 ft 434 kts 258°
2026-04-22 11:44 -17.94537 173.88815 34031 ft 434 kts 258°
2026-04-22 11:44 -17.96116 173.82705 34032 ft 433 kts 258°
2026-04-22 11:45 -17.97693 173.76589 34025 ft 434 kts 258°
2026-04-22 11:45 -17.99260 173.70505 34032 ft 434 kts 258°
2026-04-22 11:46 -18.00835 173.64387 34028 ft 433 kts 258°
2026-04-22 11:46 -18.02406 173.58274 34028 ft 434 kts 258°
2026-04-22 11:47 -18.03976 173.52151 34032 ft 434 kts 258°
2026-04-22 11:47 -18.05552 173.46033 34024 ft 430 kts 259°
2026-04-22 11:48 -18.07103 173.40025 34032 ft 425 kts 259°
2026-04-22 11:48 -18.08638 173.34007 34028 ft 428 kts 259°
2026-04-22 11:49 -18.10177 173.27957 34029 ft 428 kts 259°
2026-04-22 11:49 -18.11711 173.21930 34032 ft 427 kts 259°
2026-04-22 11:50 -18.13244 173.15897 34024 ft 428 kts 259°
2026-04-22 11:50 -18.14778 173.09850 34028 ft 428 kts 259°
2026-04-22 11:51 -18.16309 173.03814 34028 ft 427 kts 259°
2026-04-22 11:51 -18.17837 172.97784 34025 ft 427 kts 259°
2026-04-22 11:52 -18.19366 172.91739 34032 ft 428 kts 259°
2026-04-22 11:52 -18.20878 172.85741 34029 ft 426 kts 259°
2026-04-22 11:53 -18.22392 172.79737 34032 ft 424 kts 259°
2026-04-22 11:53 -18.23907 172.73721 34032 ft 426 kts 259°
2026-04-22 11:54 -18.25425 172.67693 34027 ft 426 kts 259°
2026-04-22 11:54 -18.26937 172.61679 34026 ft 425 kts 259°
2026-04-22 11:55 -18.28448 172.55660 34028 ft 426 kts 259°
2026-04-22 11:55 -18.29958 172.49634 34022 ft 426 kts 259°
2026-04-22 11:56 -18.31466 172.43612 34026 ft 425 kts 259°
2026-04-22 11:56 -18.32970 172.37596 34027 ft 426 kts 259°
2026-04-22 11:57 -18.34475 172.31564 34032 ft 426 kts 259°
2026-04-22 11:57 -18.35978 172.25533 34014 ft 425 kts 259°
2026-04-22 11:58 -18.37477 172.19514 34005 ft 425 kts 259°
2026-04-22 11:58 -18.38974 172.13490 34003 ft 426 kts 259°
2026-04-22 11:59 -18.40471 172.07456 34000 ft 426 kts 259°
2026-04-22 11:59 -18.41965 172.01427 34001 ft 425 kts 259°
2026-04-22 12:00 -18.43446 171.95445 34002 ft 425 kts 259°
2026-04-22 12:00 -18.44946 171.89370 34002 ft 426 kts 259°
2026-04-22 12:01 -18.46436 171.83336 34002 ft 426 kts 259°
2026-04-22 12:01 -18.47921 171.77308 34002 ft 425 kts 259°
2026-04-22 12:02 -18.49395 171.71317 34002 ft 426 kts 259°
2026-04-22 12:02 -18.50881 171.65277 34002 ft 426 kts 260°
2026-04-22 12:03 -18.52364 171.59242 34002 ft 425 kts 260°
2026-04-22 12:03 -18.53839 171.53217 34002 ft 425 kts 260°
2026-04-22 12:04 -18.55315 171.47181 34002 ft 426 kts 260°
2026-04-22 12:04 -18.56790 171.41137 34002 ft 425 kts 260°
2026-04-22 12:05 -18.58261 171.35108 34002 ft 425 kts 260°
2026-04-22 12:05 -18.59730 171.29074 33999 ft 425 kts 260°
2026-04-22 12:06 -18.61199 171.23029 34001 ft 426 kts 260°
2026-04-22 12:06 -18.62666 171.16990 34002 ft 425 kts 260°
2026-04-22 12:07 -18.64129 171.10956 34002 ft 425 kts 260°
2026-04-22 12:07 -18.65591 171.04913 34002 ft 426 kts 260°
2026-04-22 12:08 -18.67053 170.98869 34001 ft 425 kts 260°
2026-04-22 12:08 -18.68501 170.92872 34002 ft 425 kts 260°
2026-04-22 12:09 -18.69966 170.86792 34003 ft 425 kts 260°
2026-04-22 12:09 -18.71412 170.80783 34001 ft 425 kts 260°
2026-04-22 12:10 -18.72864 170.74740 34001 ft 425 kts 260°
2026-04-22 12:10 -18.74313 170.68700 34003 ft 425 kts 260°
2026-04-22 12:11 -18.75762 170.62652 34002 ft 425 kts 260°
2026-04-22 12:11 -18.77209 170.56602 34000 ft 425 kts 260°
2026-04-22 12:12 -18.78652 170.50561 34002 ft 424 kts 260°
2026-04-22 12:12 -18.80095 170.44540 34002 ft 416 kts 261°
2026-04-22 12:13 -18.80805 170.41625 34000 ft 405 kts 261°
2026-04-22 12:13 -18.81495 170.38752 34002 ft 404 kts 261°
2026-04-22 12:13 -18.82870 170.32953 34003 ft 410 kts 261°
2026-04-22 12:14 -18.84250 170.27111 34000 ft 409 kts 261°
2026-04-22 12:14 -18.85625 170.21293 34002 ft 408 kts 261°
2026-04-22 12:15 -18.87000 170.15470 34003 ft 409 kts 261°
2026-04-22 12:15 -18.88377 170.09635 34001 ft 409 kts 261°
2026-04-22 12:16 -18.89751 170.03811 34002 ft 408 kts 261°
2026-04-22 12:16 -18.91123 169.97983 34003 ft 409 kts 261°
2026-04-22 12:17 -18.92495 169.92145 34002 ft 409 kts 261°
2026-04-22 12:17 -18.93868 169.86313 34002 ft 409 kts 261°
2026-04-22 12:18 -18.95237 169.80476 34000 ft 410 kts 262°
2026-04-22 12:18 -18.96606 169.74630 34000 ft 410 kts 262°
2026-04-22 12:19 -18.97972 169.68789 34002 ft 409 kts 262°
2026-04-22 12:19 -18.99335 169.62953 34002 ft 409 kts 262°
2026-04-22 12:20 -19.00698 169.57108 34002 ft 410 kts 262°
2026-04-22 12:20 -19.02059 169.51258 34002 ft 410 kts 262°
2026-04-22 12:21 -19.03418 169.45417 34002 ft 409 kts 262°
2026-04-22 12:21 -19.04765 169.39613 34000 ft 410 kts 262°
2026-04-22 12:22 -19.06121 169.33760 33999 ft 410 kts 262°
2026-04-22 12:22 -19.07492 169.27889 34003 ft 417 kts 263°
2026-04-22 12:23 -19.08887 169.21865 34001 ft 423 kts 263°
2026-04-22 12:23 -19.10273 169.15861 34002 ft 418 kts 263°
2026-04-22 12:24 -19.11650 169.09882 34003 ft 419 kts 263°
2026-04-22 12:24 -19.13028 169.03878 34002 ft 420 kts 263°
2026-04-22 12:25 -19.14171 168.98898 34001 ft 419 kts 263°
2026-04-22 12:25 -19.15544 168.92907 34002 ft 419 kts 263°
2026-04-22 12:26 -19.16916 168.86908 34003 ft 420 kts 263°
2026-04-22 12:26 -19.18287 168.80907 34001 ft 419 kts 263°
2026-04-22 12:27 -19.19655 168.74917 34003 ft 419 kts 263°
2026-04-22 12:27 -19.21017 168.68938 34001 ft 412 kts 263°
2026-04-22 12:28 -19.21690 168.66053 34000 ft 398 kts 263°
2026-04-22 12:28 -19.22344 168.63217 34002 ft 396 kts 264°
2026-04-22 12:28 -19.23637 168.57503 34003 ft 402 kts 264°
2026-04-22 12:29 -19.24936 168.51736 33999 ft 402 kts 264°
2026-04-22 12:29 -19.26233 168.45993 34002 ft 401 kts 264°
2026-04-22 12:30 -19.28177 168.37370 34002 ft 402 kts 264°
2026-04-22 12:31 -19.29474 168.31614 34001 ft 402 kts 264°
2026-04-22 12:31 -19.30767 168.25871 34002 ft 401 kts 264°
2026-04-22 12:32 -19.32060 168.20116 34002 ft 402 kts 264°
2026-04-22 12:32 -19.33999 168.11471 34001 ft 401 kts 264°
2026-04-22 12:33 -19.35288 168.05723 34001 ft 401 kts 264°
2026-04-22 12:33 -19.36564 168.00012 34002 ft 402 kts 264°
2026-04-22 12:34 -19.37851 167.94244 34002 ft 402 kts 264°
2026-04-22 12:34 -19.39135 167.88487 34002 ft 401 kts 264°
2026-04-22 12:35 -19.40415 167.82738 34001 ft 402 kts 264°
2026-04-22 12:35 -19.41696 167.76970 34001 ft 402 kts 264°
2026-04-22 12:36 -19.42974 167.71212 34002 ft 401 kts 264°
2026-04-22 12:36 -19.44248 167.65461 34002 ft 401 kts 264°
2026-04-22 12:37 -19.45521 167.59701 34002 ft 402 kts 264°
2026-04-22 12:37 -19.46789 167.53937 34002 ft 401 kts 264°
2026-04-22 12:38 -19.48050 167.48209 34002 ft 402 kts 264°
2026-04-22 12:38 -19.49407 167.42446 34005 ft 410 kts 254°
2026-04-22 12:39 -19.51025 167.39869 34037 ft 437 kts 233°
2026-04-22 12:39 -19.56457 167.36419 34011 ft 466 kts 216°
2026-04-22 12:40 -19.62368 167.33570 33997 ft 467 kts 214°
2026-04-22 12:40 -19.68322 167.30822 33996 ft 467 kts 213°
2026-04-22 12:41 -19.74299 167.28079 33996 ft 469 kts 213°
2026-04-22 12:41 -19.80276 167.25329 33996 ft 468 kts 213°
2026-04-22 12:42 -19.86238 167.22577 33998 ft 467 kts 213°
2026-04-22 12:42 -19.92196 167.19815 33998 ft 468 kts 214°
2026-04-22 12:43 -19.98152 167.17047 34088 ft 467 kts 214°
2026-04-22 12:43 -20.04108 167.14272 34105 ft 468 kts 214°
2026-04-22 12:44 -20.10070 167.11489 34101 ft 467 kts 214°
2026-04-22 12:44 -20.16016 167.08711 34102 ft 467 kts 214°
2026-04-22 12:45 -20.21933 167.05941 34102 ft 467 kts 214°
2026-04-22 12:45 -20.27887 167.03151 34101 ft 467 kts 214°
2026-04-22 12:46 -20.33835 167.00363 34101 ft 467 kts 214°
2026-04-22 12:46 -20.39779 166.97572 34101 ft 467 kts 214°
2026-04-22 12:47 -20.45727 166.94777 34101 ft 467 kts 214°
2026-04-22 12:47 -20.51674 166.91980 34101 ft 467 kts 214°
2026-04-22 12:48 -20.57631 166.89175 34102 ft 469 kts 214°
2026-04-22 12:48 -20.63603 166.86361 33616 ft 468 kts 214°
2026-04-22 12:48 -20.66541 166.84978 32697 ft 468 kts 214°
2026-04-22 12:49 -20.69515 166.83575 31560 ft 467 kts 214°
2026-04-22 12:49 -20.72485 166.82174 30379 ft 466 kts 214°
2026-04-22 12:49 -20.75449 166.80776 29134 ft 464 kts 213°
2026-04-22 12:49 -20.78400 166.79375 27707 ft 465 kts 213°
2026-04-22 12:50 -20.81364 166.77955 26048 ft 469 kts 212°
2026-04-22 12:50 -20.84342 166.76522 24694 ft 467 kts 211°
2026-04-22 12:50 -20.87285 166.75111 23492 ft 460 kts 211°
2026-04-22 12:50 -20.90185 166.73732 22334 ft 452 kts 210°
2026-04-22 12:51 -20.93042 166.72383 21183 ft 445 kts 210°
2026-04-22 12:51 -20.95848 166.71063 20045 ft 437 kts 210°
2026-04-22 12:51 -20.98608 166.69765 18910 ft 430 kts 210°
2026-04-22 12:51 -21.01323 166.68487 17788 ft 422 kts 210°
2026-04-22 12:52 -21.03990 166.67230 16665 ft 416 kts 209°
2026-04-22 12:52 -21.06609 166.65990 15593 ft 408 kts 209°
2026-04-22 12:52 -21.09183 166.64769 14481 ft 402 kts 209°
2026-04-22 12:52 -21.11714 166.63559 13384 ft 395 kts 208°
2026-04-22 12:53 -21.14206 166.62370 12322 ft 389 kts 208°
2026-04-22 12:53 -21.16661 166.61202 11251 ft 383 kts 207°
2026-04-22 12:53 -21.19076 166.60054 10192 ft 377 kts 207°
2026-04-22 12:53 -21.21270 166.58620 9285 ft 363 kts 224°
2026-04-22 12:54 -21.23023 166.56793 8830 ft 341 kts 228°
2026-04-22 12:54 -21.24582 166.54974 8438 ft 322 kts 230°
2026-04-22 12:54 -21.26011 166.53214 8076 ft 305 kts 231°
2026-04-22 12:54 -21.27341 166.51515 7737 ft 290 kts 231°
2026-04-22 12:55 -21.28588 166.49879 7410 ft 277 kts 231°
2026-04-22 12:55 -21.29756 166.48313 6993 ft 270 kts 231°
2026-04-22 12:55 -21.30913 166.46734 6432 ft 269 kts 231°
2026-04-22 12:55 -21.32070 166.45127 5840 ft 269 kts 231°
2026-04-22 12:56 -21.33224 166.43506 5393 ft 279 kts 231°
2026-04-22 12:56 -21.34361 166.41894 5168 ft 271 kts 231°
2026-04-22 12:56 -21.35491 166.40284 5072 ft 271 kts 231°
2026-04-22 12:56 -21.36624 166.38667 5026 ft 270 kts 231°
2026-04-22 12:57 -21.37748 166.37055 5012 ft 270 kts 232°
2026-04-22 12:57 -21.38874 166.35435 5003 ft 271 kts 232°
2026-04-22 12:57 -21.40001 166.33810 4998 ft 271 kts 232°
2026-04-22 12:57 -21.41121 166.32191 4996 ft 270 kts 232°
2026-04-22 12:58 -21.42243 166.30567 4995 ft 271 kts 232°
2026-04-22 12:58 -21.43364 166.28941 4994 ft 271 kts 232°
2026-04-22 12:58 -21.44483 166.27319 4995 ft 270 kts 232°
2026-04-22 12:58 -21.45602 166.25695 4995 ft 271 kts 232°
2026-04-22 12:59 -21.46721 166.24069 4994 ft 271 kts 232°
2026-04-22 12:59 -21.47838 166.22447 4993 ft 270 kts 232°
2026-04-22 12:59 -21.48956 166.20822 4994 ft 271 kts 232°
2026-04-22 12:59 -21.50077 166.19192 4993 ft 271 kts 232°
2026-04-22 13:00 -21.51194 166.17566 4993 ft 270 kts 232°
2026-04-22 13:00 -21.52313 166.15938 4994 ft 271 kts 232°
2026-04-22 13:00 -21.53431 166.14309 4994 ft 271 kts 232°
2026-04-22 13:00 -21.54547 166.12684 4992 ft 270 kts 231°
2026-04-22 13:01 -21.55929 166.11355 5016 ft 271 kts 202°
2026-04-22 13:01 -21.57712 166.10756 5012 ft 268 kts 193°
2026-04-22 13:01 -21.59529 166.10291 4987 ft 269 kts 192°
2026-04-22 13:01 -21.61353 166.09824 4994 ft 268 kts 193°
2026-04-22 13:02 -21.63160 166.09335 5005 ft 267 kts 194°
2026-04-22 13:02 -21.64958 166.08816 5000 ft 268 kts 195°
2026-04-22 13:02 -21.66749 166.08260 4973 ft 270 kts 196°
2026-04-22 13:02 -21.68536 166.07673 4773 ft 266 kts 197°
2026-04-22 13:03 -21.70298 166.07069 4250 ft 265 kts 197°
2026-04-22 13:03 -21.72049 166.06449 3783 ft 267 kts 197°
2026-04-22 13:03 -21.73769 166.05823 3563 ft 253 kts 197°
2026-04-22 13:03 -21.75369 166.05234 3474 ft 231 kts 197°
2026-04-22 13:04 -21.76819 166.04698 3429 ft 212 kts 197°
2026-04-22 13:04 -21.78208 166.04188 3411 ft 210 kts 197°
2026-04-22 13:04 -21.79565 166.03692 3414 ft 196 kts 196°
2026-04-22 13:04 -21.80844 166.03220 3414 ft 195 kts 197°
2026-04-22 13:05 -21.82121 166.02750 3414 ft 193 kts 197°
2026-04-22 13:05 -21.83391 166.02282 3403 ft 193 kts 197°
2026-04-22 13:05 -21.84662 166.01815 3397 ft 193 kts 196°
2026-04-22 13:05 -21.85899 166.01356 3391 ft 181 kts 197°
2026-04-22 13:06 -21.87110 166.00920 3389 ft 184 kts 192°
2026-04-22 13:06 -21.88336 166.01038 3402 ft 180 kts 148°
2026-04-22 13:06 -21.89248 166.01965 3401 ft 182 kts 133°
2026-04-22 13:06 -21.90075 166.02984 3394 ft 180 kts 130°
2026-04-22 13:07 -21.90872 166.04029 3392 ft 181 kts 129°
2026-04-22 13:07 -21.91660 166.05096 3297 ft 184 kts 129°
2026-04-22 13:07 -21.92451 166.06159 3022 ft 179 kts 129°
2026-04-22 13:07 -21.93209 166.07213 2757 ft 177 kts 127°
2026-04-22 13:08 -21.93949 166.08276 2516 ft 177 kts 126°
2026-04-22 13:08 -21.94678 166.09351 2294 ft 182 kts 125°
2026-04-22 13:08 -21.95352 166.10458 2059 ft 160 kts 122°
2026-04-22 13:08 -21.95904 166.11423 1861 ft 150 kts 121°
2026-04-22 13:09 -21.96446 166.12381 1682 ft 150 kts 121°
2026-04-22 13:09 -21.96984 166.13338 1467 ft 149 kts 121°
2026-04-22 13:09 -21.97517 166.14293 1280 ft 149 kts 120°
2026-04-22 13:09 -21.98049 166.15245 1080 ft 148 kts 121°
2026-04-22 13:10 -21.98574 166.16182 884 ft 148 kts 121°
2026-04-22 13:10 -21.99104 166.17129 684 ft 148 kts 121°
2026-04-22 13:10 -21.99636 166.18072 487 ft 147 kts 121°
2026-04-22 13:10 -22.00165 166.19012 295 ft 146 kts 121°
2026-04-22 13:11 -22.00691 166.19949 102 ft 146 kts 121°
2026-04-22 13:11 -22.01134 166.20736 47 ft 85 kts 121°
2026-04-22 13:11 -22.01390 166.21195 46 ft 57 kts 121°
2026-04-22 13:11 -22.01456 166.21382 49 ft 15 kts 67°
2026-04-22 13:12 -22.01390 166.21442 49 ft 10 kts 32°
2026-04-22 13:12 -22.01345 166.21474 47 ft 6 kts 33°
2026-04-22 13:12 -22.01328 166.21488 49 ft 1 kts 48°
2026-04-22 13:12 -22.01304 166.21519 49 ft 5 kts 84°
2026-04-22 13:13 -22.01319 166.21565 48 ft 6 kts 121°
2026-04-22 13:13 -22.01330 166.21584 49 ft 0 kts 121°